| time (UTC) | temp F | wind direction | speed MPH | gust MPH | rain 1hr in | rain 24hr in | rain mn in | humidity % | barometer mb |
| 20260503213603 | 61 | 202 | 6.0 | 13.0 | 0.00 | 0.00 | 0.00 | 70 | 1015.7 |
| 20260503212703 | 61 | 187 | 6.0 | 13.0 | 0.00 | 0.00 | 0.00 | 69 | 1015.9 |
| 20260503211803 | 62 | 184 | 5.0 | 14.0 | 0.00 | 0.00 | 0.00 | 68 | 1016.0 |
| 20260503210903 | 62 | 198 | 7.0 | 14.0 | 0.00 | 0.00 | 0.00 | 67 | 1015.5 |
| 20260503210004 | 62 | 202 | 9.0 | 16.0 | 0.00 | 0.00 | 0.00 | 67 | 1015.6 |
| 20260503205403 | 63 | 197 | 7.0 | 15.0 | 0.00 | 0.00 | 0.00 | 67 | 1015.4 |
| 20260503204503 | 63 | 197 | 7.0 | 16.0 | 0.00 | 0.00 | 0.00 | 66 | 1015.3 |
| 20260503203603 | 63 | 190 | 7.0 | 14.0 | 0.00 | 0.00 | 0.00 | 65 | 1015.4 |
| 20260503202703 | 63 | 191 | 7.0 | 15.0 | 0.00 | 0.00 | 0.00 | 64 | 1015.1 |
| 20260503201803 | 64 | 187 | 6.0 | 11.0 | 0.00 | 0.00 | 0.00 | 63 | 1014.9 |
| 20260503200903 | 64 | 189 | 5.0 | 14.0 | 0.00 | 0.00 | 0.00 | 62 | 1014.8 |
| 20260503200003 | 64 | 191 | 5.0 | 17.0 | 0.00 | 0.00 | 0.00 | 61 | 1014.9 |
| 20260503195403 | 64 | 195 | 6.0 | 11.0 | 0.00 | 0.00 | 0.00 | 60 | 1014.6 |
| 20260503194503 | 65 | 193 | 6.0 | 13.0 | 0.00 | 0.00 | 0.00 | 60 | 1014.5 |
| 20260503193603 | 65 | 200 | 6.0 | 13.0 | 0.00 | 0.00 | 0.00 | 59 | 1014.2 |
| 20260503192703 | 66 | 201 | 6.0 | 11.0 | 0.00 | 0.00 | 0.00 | 58 | 1014.1 |
| 20260503191803 | 66 | 197 | 6.0 | 14.0 | 0.00 | 0.00 | 0.00 | 57 | 1014.1 |
| 20260503190903 | 67 | 200 | 8.0 | 14.0 | 0.00 | 0.00 | 0.00 | 55 | 1014.0 |
| 20260503190003 | 67 | 195 | 6.0 | 14.0 | 0.00 | 0.00 | 0.00 | 55 | 1013.7 |
| 20260503185403 | 68 | 198 | 6.0 | 14.0 | 0.00 | 0.00 | 0.00 | 54 | 1013.7 |
| 20260503184503 | 68 | 206 | 6.0 | 14.0 | 0.00 | 0.00 | 0.00 | 52 | 1013.6 |
| 20260503183603 | 69 | 205 | 7.0 | 14.0 | 0.00 | 0.00 | 0.00 | 51 | 1013.6 |
| 20260503182703 | 70 | 190 | 6.0 | 14.0 | 0.00 | 0.00 | 0.00 | 49 | 1013.5 |
| 20260503181803 | 70 | 202 | 8.0 | 16.0 | 0.00 | 0.00 | 0.00 | 50 | 1013.5 |
| 20260503180903 | 69 | 206 | 9.0 | 17.0 | 0.00 | 0.00 | 0.00 | 49 | 1013.5 |
| 20260503180004 | 70 | 204 | 8.0 | 17.0 | 0.00 | 0.00 | 0.00 | 48 | 1013.5 |
| 20260503175403 | 70 | 209 | 8.0 | 15.0 | 0.00 | 0.00 | 0.00 | 48 | 1013.5 |
| 20260503174503 | 71 | 203 | 7.0 | 13.0 | 0.00 | 0.00 | 0.00 | 48 | 1013.5 |
| 20260503173817 | 71 | 199 | 8.0 | 16.0 | 0.00 | 0.00 | 0.00 | 48 | 1013.3 |
| 20260503172703 | 71 | 206 | 9.0 | 17.0 | 0.00 | 0.00 | 0.00 | 48 | 1013.3 |
| 20260503171803 | 71 | 192 | 8.0 | 18.0 | 0.00 | 0.00 | 0.00 | 48 | 1013.3 |
| 20260503170903 | 71 | 205 | 8.0 | 15.0 | 0.00 | 0.00 | 0.00 | 50 | 1013.3 |
| 20260503150903 | 71 | 200 | 9.0 | 16.0 | 0.00 | 0.00 | 0.00 | 51 | 1013.5 |
| 20260503130903 | 71 | 172 | 8.0 | 15.0 | 0.00 | 0.00 | 0.00 | 55 | 1014.5 |
| 20260503080903 | 61 | 153 | 5.0 | 9.0 | 0.00 | 0.00 | 0.00 | 84 | 1016.3 |
| 20260503072703 | 61 | 173 | 4.0 | 8.0 | 0.00 | 0.00 | 0.00 | 85 | 1016.2 |
| 20260503071803 | 60 | 152 | 5.0 | 9.0 | 0.00 | 0.00 | 0.00 | 86 | 1016.3 |
| 20260503070903 | 60 | 149 | 5.0 | 8.0 | 0.00 | 0.00 | 0.00 | 86 | 1016.2 |
| 20260503054503 | 59 | 108 | 2.0 | 3.0 | 0.00 | 0.00 | 0.00 | 86 | 1016.0 |
| 20260503053603 | 58 | 108 | 3.0 | 4.0 | 0.00 | 0.00 | 0.00 | 87 | 1015.8 |
| 20260503052703 | 58 | 108 | 4.0 | 6.0 | 0.00 | 0.00 | 0.00 | 86 | 1015.8 |
| 20260503051803 | 59 | 108 | 4.0 | 7.0 | 0.00 | 0.00 | 0.00 | 86 | 1015.9 |
| 20260503050903 | 59 | 108 | 4.0 | 7.0 | 0.00 | 0.00 | 0.00 | 85 | 1015.9 |
| 20260503050003 | 59 | 108 | 3.0 | 6.0 | 0.00 | 0.00 | 0.00 | 85 | 1016.0 |
| 20260503045403 | 59 | 108 | 2.0 | 4.0 | 0.00 | 0.00 | 0.00 | 84 | 1016.0 |
| 20260503044503 | 59 | 108 | 2.0 | 7.0 | 0.00 | 0.00 | 0.00 | 84 | 1015.8 |
| 20260503043818 | 59 | 109 | 2.0 | 4.0 | 0.00 | 0.00 | 0.00 | 84 | 1015.9 |
| 20260503042703 | 59 | 112 | 2.0 | 4.0 | 0.00 | 0.00 | 0.00 | 83 | 1015.9 |
| 20260503041803 | 59 | 117 | 2.0 | 4.0 | 0.00 | 0.00 | 0.00 | 83 | 1015.9 |
| 20260503040903 | 60 | 116 | 2.0 | 4.0 | 0.00 | 0.00 | 0.00 | 82 | 1016.0 |
| 20260503040003 | 59 | 122 | 2.0 | 6.0 | 0.00 | 0.00 | 0.00 | 82 | 1015.8 |
| 20260503035403 | 59 | 125 | 2.0 | 6.0 | 0.00 | 0.00 | 0.00 | 83 | 1015.9 |
| 20260503034503 | 59 | 122 | 2.0 | 6.0 | 0.00 | 0.00 | 0.00 | 83 | 1016.0 |
| 20260503033603 | 59 | 127 | 2.0 | 4.0 | 0.00 | 0.00 | 0.00 | 84 | 1016.1 |
| 20260503032703 | 59 | 128 | 3.0 | 7.0 | 0.00 | 0.00 | 0.00 | 84 | 1016.0 |
| 20260503031803 | 59 | 128 | 4.0 | 7.0 | 0.00 | 0.00 | 0.00 | 84 | 1016.2 |
| 20260503030903 | 59 | 138 | 4.0 | 7.0 | 0.00 | 0.00 | 0.00 | 83 | 1016.4 |
| 20260503030003 | 59 | 136 | 4.0 | 8.0 | 0.00 | 0.00 | 0.00 | 85 | 1016.1 |
| 20260503025403 | 59 | 139 | 4.0 | 8.0 | 0.00 | 0.00 | 0.00 | 84 | 1016.1 |
| 20260503024503 | 60 | 143 | 2.0 | 6.0 | 0.00 | 0.00 | 0.00 | 84 | 1016.2 |
| 20260503023603 | 60 | 142 | 2.0 | 7.0 | 0.00 | 0.00 | 0.00 | 84 | 1016.4 |
| 20260503022703 | 60 | 159 | 4.0 | 9.0 | 0.00 | 0.00 | 0.00 | 85 | 1016.6 |
| 20260503022018 | 60 | 170 | 3.0 | 7.0 | 0.00 | 0.00 | 0.00 | 85 | 1016.7 |
| 20260503020903 | 60 | 149 | 3.0 | 8.0 | 0.00 | 0.00 | 0.00 | 86 | 1016.7 |
| 20260503020217 | 60 | 158 | 4.0 | 9.0 | 0.00 | 0.00 | 0.00 | 86 | 1016.8 |
| 20260503015403 | 60 | 160 | 3.0 | 7.0 | 0.00 | 0.00 | 0.00 | 86 | 1016.8 |
| 20260503014503 | 60 | 172 | 3.0 | 7.0 | 0.00 | 0.00 | 0.00 | 86 | 1016.9 |
| 20260503013603 | 60 | 189 | 5.0 | 10.0 | 0.00 | 0.00 | 0.00 | 86 | 1016.7 |
| 20260503012703 | 60 | 182 | 4.0 | 9.0 | 0.00 | 0.00 | 0.00 | 87 | 1016.7 |
| 20260503011803 | 60 | 181 | 4.0 | 9.0 | 0.00 | 0.00 | 0.00 | 87 | 1016.9 |
| 20260503010903 | 61 | 186 | 4.0 | 10.0 | 0.00 | 0.00 | 0.00 | 87 | 1016.8 |
| 20260503010003 | 61 | 191 | 6.0 | 11.0 | 0.00 | 0.00 | 0.00 | 87 | 1017.0 |
| 20260503005403 | 61 | 193 | 6.0 | 11.0 | 0.00 | 0.00 | 0.00 | 86 | 1017.1 |
| 20260503004503 | 61 | 192 | 6.0 | 13.0 | 0.00 | 0.00 | 0.00 | 86 | 1017.2 |
| 20260503003603 | 61 | 196 | 6.0 | 11.0 | 0.00 | 0.00 | 0.00 | 86 | 1017.0 |
| 20260503002703 | 61 | 192 | 6.0 | 13.0 | 0.00 | 0.00 | 0.00 | 86 | 1017.1 |
| 20260503001803 | 62 | 183 | 5.0 | 13.0 | 0.00 | 0.00 | 0.00 | 86 | 1017.2 |
| 20260503000903 | 62 | 179 | 4.0 | 9.0 | 0.00 | 0.00 | 0.00 | 86 | 1017.3 |
| 20260503000007 | 62 | 164 | 4.0 | 9.0 | 0.00 | 0.00 | 0.00 | 86 | 1017.3 |
| 20260502235618 | 62 | 161 | 4.0 | 10.0 | 0.00 | 0.00 | 0.00 | 86 | 1017.5 |
| 20260502234503 | 62 | 158 | 4.0 | 9.0 | 0.00 | 0.00 | 0.00 | 86 | 1017.3 |
| 20260502233603 | 62 | 166 | 4.0 | 10.0 | 0.00 | 0.00 | 0.00 | 86 | 1017.3 |
| 20260502232703 | 62 | 162 | 5.0 | 9.0 | 0.00 | 0.00 | 0.00 | 86 | 1017.4 |
| 20260502231803 | 62 | 159 | 5.0 | 10.0 | 0.00 | 0.00 | 0.00 | 86 | 1017.5 |
| 20260502230903 | 62 | 162 | 5.0 | 10.0 | 0.00 | 0.00 | 0.00 | 86 | 1017.3 |
| 20260502230004 | 62 | 157 | 4.0 | 9.0 | 0.00 | 0.00 | 0.00 | 86 | 1017.3 |
| 20260502225403 | 62 | 154 | 3.0 | 9.0 | 0.00 | 0.00 | 0.00 | 85 | 1017.5 |
| 20260502224503 | 62 | 168 | 4.0 | 9.0 | 0.00 | 0.00 | 0.00 | 85 | 1017.3 |
| 20260502223603 | 63 | 171 | 3.0 | 8.0 | 0.00 | 0.00 | 0.00 | 85 | 1017.3 |
| 20260502222704 | 63 | 194 | 5.0 | 9.0 | 0.00 | 0.00 | 0.00 | 85 | 1017.0 |
| 20260502221803 | 63 | 203 | 6.0 | 10.0 | 0.00 | 0.00 | 0.00 | 84 | 1017.1 |
| 20260502221118 | 63 | 197 | 5.0 | 10.0 | 0.00 | 0.00 | 0.00 | 84 | 1017.0 |
| 20260502220003 | 63 | 174 | 4.0 | 10.0 | 0.00 | 0.00 | 0.00 | 84 | 1016.9 |
| 20260502215403 | 63 | 162 | 3.0 | 8.0 | 0.00 | 0.00 | 0.00 | 84 | 1017.0 |
| 20260502214503 | 64 | 157 | 3.0 | 6.0 | 0.00 | 0.00 | 0.00 | 84 | 1017.1 |